Wind_Speed
39 33 32 30 25 30 33 34 38 40 41 43 40 34 29 33 30 31 29 29 29 28 27 25 24 23 21 19 18 18 18 18 16 16 17 20 23 23 23 24 26 28 27 26
26 22 24 26 31 32 38 34 36 36 39 42 39 32 29 34 36 32 31 29 28 29 27 25 24 23 22 19 18 19 20 19 18 17 17 18 21 23 23 24 25 27 26 25
29 27 29 28 25 23 26 27 31 35 31 36 30 23 35 35 33 31 30 29 29 30 28 25 24 22 22 21 19 21 22 20 18 18 17 19 20 21 23 24 24 25 25 23
36 34 32 30 30 29 26 25 29 28 27 26 25 25 26 32 33 31 29 29 29 29 27 26 25 23 23 23 22 22 22 21 19 18 18 19 20 22 22 24 24 24 25 23
38 37 35 35 33 31 31 31 32 32 31 29 26 24 26 30 32 32 31 29 30 28 26 25 25 24 25 25 24 22 22 22 21 21 21 22 22 23 23 24 24 24 24 23
40 40 40 38 36 36 35 34 33 32 32 33 27 26 24 29 30 32 30 27 28 28 26 25 24 24 25 25 25 25 24 24 23 22 24 24 24 25 25 25 25 25 25 23
43 41 39 39 39 38 36 35 35 35 34 33 27 29 25 28 30 29 29 26 27 28 27 27 27 27 26 26 26 25 25 25 23 24 25 26 26 26 27 27 26 27 26 25
45 44 41 40 39 37 38 37 37 37 36 35 31 31 27 26 30 29 27 27 27 28 28 28 28 29 29 28 27 27 27 27 27 27 27 26 27 27 29 31 28 27 29 28
47 47 44 42 41 39 37 38 36 38 38 37 35 32 28 26 30 30 28 28 29 31 32 31 32 33 33 31 29 29 29 30 29 29 30 29 25 26 29 32 32 30 29 30
48 48 47 44 43 44 41 38 38 39 39 40 38 34 32 29 28 30 30 30 30 30 32 34 34 36 35 34 33 33 33 32 31 31 32 34 31 29 29 30 31 31 31 31
52 50 48 48 48 45 44 43 42 40 42 41 42 40 35 33 32 31 31 32 32 32 33 34 35 37 36 36 36 36 37 36 34 33 33 34 32 32 33 33 33 32 31 31
51 51 52 50 47 46 46 44 45 47 46 45 45 45 42 39 36 36 35 36 36 36 37 38 39 38 38 38 38 35 35 36 35 35 36 38 38 38 38 40 39 37 34 33
51 54 53 52 53 52 51 48 47 47 47 48 48 49 46 45 43 42 43 42 42 42 42 41 41 40 40 40 40 41 41 41 41 43 42 44 46 46 45 43 43 43 40 37
45 47 52 53 51 50 51 51 50 49 52 51 51 51 51 50 49 48 47 47 47 45 45 46 46 47 48 48 47 47 48 49 49 52 50 49 48 48 47 46 46 47 47 43
44 46 46 49 53 54 52 49 49 52 53 55 55 54 56 56 55 54 53 53 53 52 52 53 53 53 54 54 53 53 53 52 51 52 52 51 51 49 48 48 47 49 51 50
40 43 46 45 44 47 50 52 51 51 50 49 53 57 58 57 58 57 56 55 55 57 58 58 58 59 59 60 60 60 59 59 58 56 56 56 56 55 53 51 50 49 50 53
44 43 42 44 46 47 48 47 47 49 51 53 55 53 53 55 58 59 58 57 57 59 60 61 62 63 64 64 64 64 65 65 64 64 63 62 62 62 60 58 57 55 53 54
40 41 42 44 46 47 48 47 48 48 48 50 52 51 53 56 57 59 60 62 62 62 62 62 62 63 64 65 66 67 67 67 68 69 69 69 68 67 67 66 63 62 61 59
48 45 44 43 43 45 44 44 43 42 43 43 44 46 49 52 55 58 60 61 62 62 63 64 65 67 68 68 69 70 71 71 72 73 73 74 74 73 72 72 71 68 67 65
51 54 55 54 53 52 49 48 48 49 49 47 48 48 48 50 52 53 55 56 58 60 61 61 62 63 65 67 69 70 71 71 71 73 74 75 76 76 77 77 76 75 74 72
49 52 54 56 58 60 59 60 59 56 55 55 56 57 57 57 58 59 60 60 61 62 64 66 67 67 67 68 68 68 68 70 72 75 77 77 76 77 79 80 82 83 80 76
44 47 48 51 53 55 54 55 55 57 58 59 60 60 60 60 61 63 65 67 69 71 72 73 74 75 76 76 76 76 75 74 74 75 75 73 74 76 77 76 75 77 77 76
42 43 45 46 48 49 50 52 52 53 54 55 57 59 60 61 63 64 67 69 71 73 75 76 78 80 82 83 83 81 81 80 80 80 79 80 82 81 79 78 79 78 80 81
38 40 42 43 44 46 48 50 51 52 52 53 55 56 57 59 61 63 64 66 69 71 72 74 75 77 78 79 82 85 85 84 84 83 83 84 85 86 88 91 90 86 85 85
31 32 34 36 38 40 41 43 45 47 47 48 50 51 53 54 56 58 60 62 64 67 69 71 73 75 77 80 81 84 85 86 87 87 88 87 88 89 90 90 92 94 95 95
16 19 21 23 24 26 28 30 32 32 32 31 28 26 26 26 25 26 28 29 31 32 34 36 40 45 52 58 65 72 79 84 87 88 90 91 92 92 93 94 93 95 95 96
Wind_Direction
209 205 204 213 209 209 218 223 228 231 233 238 238 248 251 250 240 243 242 244 242 242 246 246 253 263 266 270 267 268 280 292 298 294 283 286 293 297 302 309 315 324 332 335
202 208 210 217 211 213 217 225 231 237 240 241 247 249 236 244 244 241 242 240 245 246 249 250 253 261 268 267 265 262 269 280 291 291 291 293 296 297 301 305 312 321 329 334
219 213 214 220 227 219 212 219 227 236 239 246 246 237 234 241 248 243 239 242 243 246 250 254 258 262 265 265 262 262 267 272 281 284 288 291 295 296 301 303 309 317 326 331
215 217 218 216 221 223 223 225 224 230 236 239 241 230 228 238 244 245 244 244 243 242 249 254 257 258 259 261 261 261 266 270 276 285 289 293 295 296 299 300 306 313 321 327
219 221 222 218 218 222 224 226 233 236 241 245 245 241 221 234 243 250 249 244 247 246 247 251 254 253 254 255 257 259 261 265 272 279 285 290 293 295 297 299 302 308 315 321
219 218 222 225 225 225 226 228 233 238 243 245 245 248 223 222 235 244 246 243 241 248 249 249 250 253 254 254 257 258 259 264 273 282 286 289 292 295 296 297 300 303 308 314
221 221 223 226 228 230 230 231 236 239 240 245 241 246 240 225 225 237 244 246 242 246 250 249 250 252 253 255 260 262 264 266 271 279 285 290 292 296 299 298 298 300 304 308
224 225 224 226 229 231 232 235 238 241 243 247 243 245 243 234 233 234 240 242 246 249 250 252 255 258 260 260 260 260 263 268 273 274 279 285 290 294 298 299 299 299 301 304
227 228 227 226 232 233 233 237 241 245 246 247 246 245 247 241 236 242 243 242 240 242 246 250 253 257 260 263 265 263 263 263 264 269 273 275 281 286 292 296 299 300 299 299
230 231 230 231 232 234 238 237 239 244 248 251 253 249 247 246 240 240 244 244 244 242 242 245 249 251 256 261 263 264 265 266 267 269 270 272 273 276 280 284 291 296 296 295
229 232 233 233 233 236 237 238 242 245 247 251 255 254 252 251 250 247 244 246 246 246 246 248 250 253 255 257 260 261 264 265 264 264 268 272 275 280 283 285 283 284 287 289
231 234 236 236 236 238 239 239 241 242 244 248 252 255 257 253 251 252 250 248 249 249 250 251 253 255 257 258 256 256 259 260 262 264 267 273 278 281 284 285 280 277 278 279
231 233 236 237 237 238 239 241 243 244 246 247 250 254 254 258 257 255 255 255 254 253 254 255 257 258 257 255 255 256 258 261 265 268 271 274 278 280 281 279 277 273 272 274
233 235 237 239 241 241 242 243 244 245 246 248 250 253 256 256 256 256 257 257 256 255 255 255 255 257 258 259 257 258 260 262 266 269 271 272 272 273 276 276 274 272 271 269
237 238 239 240 241 242 243 243 244 246 248 249 252 253 255 257 257 258 258 258 258 258 259 258 258 258 258 260 262 263 263 263 264 266 267 268 268 270 272 272 270 269 269 268
234 236 238 241 244 247 248 248 249 250 251 253 254 256 256 258 260 262 263 262 260 260 259 259 260 259 258 258 260 262 264 266 266 267 268 268 269 270 270 270 268 268 267 267
236 237 237 238 242 246 247 248 249 251 252 253 254 255 256 257 258 260 261 262 262 261 260 259 259 260 261 261 262 261 261 263 265 267 268 268 269 269 270 269 268 267 265 265
232 236 241 238 237 237 243 245 249 252 252 252 253 254 255 256 257 258 260 262 263 263 263 262 261 261 261 262 263 263 264 265 266 266 267 267 267 267 267 268 267 267 265 264
228 226 229 232 234 239 242 244 246 246 247 248 249 250 253 255 258 259 260 261 263 264 266 267 266 265 263 262 261 262 262 263 263 264 265 265 265 265 265 264 265 266 265 263
234 234 235 238 240 243 244 247 252 255 255 258 262 261 261 262 262 262 263 264 264 265 265 266 265 265 265 265 265 264 263 263 264 264 263 263 262 263 263 264 262 264 265 264
241 242 243 244 247 249 250 253 256 259 262 264 265 266 266 265 263 261 261 261 263 264 265 266 266 265 264 264 264 263 263 264 264 264 262 260 259 259 260 260 260 261 263 261
242 246 248 251 254 256 256 259 261 262 263 265 266 267 267 268 268 268 267 267 267 268 271 271 271 271 270 271 272 274 274 270 266 261 259 260 259 258 257 258 258 258 259 260
248 249 252 254 257 258 260 261 264 265 266 267 268 270 271 272 272 272 272 273 273 273 274 274 274 273 273 274 276 276 276 275 275 273 272 272 270 265 260 258 258 257 257 258
254 255 256 258 260 262 263 265 267 269 270 271 272 273 273 274 274 275 275 274 274 274 275 275 275 275 274 274 274 273 274 273 272 271 271 271 271 271 271 270 265 261 259 256
255 256 257 257 258 259 261 263 264 266 267 269 271 273 274 276 277 277 277 278 278 278 278 278 279 279 278 277 276 275 273 271 270 268 267 267 267 267 266 265 265 265 265 263
258 258 261 263 265 265 266 268 269 273 277 281 285 289 292 295 295 296 295 295 294 294 294 295 295 293 291 288 286 282 279 276 274 273 272 271 268 265 263 262 261 262 261 260
Height
5726 5732 5740 5745 5748 5753 5760 5765 5769 5772 5776 5779 5784 5791 5792 5790 5795 5796 5797 5798 5802 5803 5804 5805 5807 5807 5806 5806 5806 5806 5805 5804 5801 5800 5799 5798 5797 5795 5793 5790 5786 5783 5778 5773
5724 5730 5735 5737 5741 5746 5755 5759 5762 5765 5768 5772 5778 5786 5786 5783 5787 5790 5791 5793 5796 5798 5800 5802 5803 5803 5802 5802 5802 5801 5799 5799 5797 5796 5796 5794 5792 5791 5789 5786 5783 5779 5775 5771
5720 5727 5730 5735 5739 5743 5749 5755 5758 5759 5762 5767 5772 5778 5779 5778 5779 5784 5785 5788 5791 5793 5794 5796 5798 5798 5798 5798 5797 5796 5795 5794 5792 5791 5790 5789 5788 5786 5785 5783 5780 5776 5772 5768
5715 5722 5726 5731 5737 5741 5745 5751 5754 5755 5758 5761 5766 5772 5773 5772 5773 5777 5780 5782 5785 5787 5790 5791 5792 5792 5792 5792 5792 5792 5791 5791 5789 5787 5786 5784 5783 5782 5780 5779 5775 5772 5769 5765
5713 5718 5723 5727 5733 5736 5741 5744 5748 5751 5752 5756 5761 5764 5768 5768 5769 5771 5774 5777 5778 5781 5783 5786 5787 5787 5787 5786 5786 5787 5787 5786 5784 5783 5782 5779 5777 5777 5775 5774 5772 5768 5766 5762
5705 5711 5717 5722 5726 5730 5736 5738 5741 5744 5747 5748 5755 5757 5762 5763 5764 5764 5767 5770 5772 5774 5776 5778 5779 5781 5782 5781 5781 5780 5780 5780 5779 5778 5777 5776 5773 5771 5771 5770 5768 5764 5762 5759
5698 5704 5710 5716 5719 5724 5730 5733 5735 5738 5739 5742 5748 5749 5754 5757 5759 5760 5761 5763 5766 5768 5770 5771 5772 5773 5774 5775 5776 5776 5776 5775 5773 5772 5772 5771 5769 5767 5766 5764 5763 5761 5758 5756
5690 5697 5703 5709 5714 5718 5722 5726 5729 5728 5732 5735 5740 5741 5747 5750 5752 5755 5756 5758 5760 5761 5762 5764 5765 5766 5767 5767 5767 5768 5768 5769 5769 5767 5766 5765 5764 5763 5761 5759 5758 5757 5754 5752
5683 5688 5695 5701 5706 5710 5715 5718 5723 5725 5726 5728 5732 5736 5739 5743 5746 5748 5750 5751 5752 5754 5755 5756 5757 5757 5759 5759 5760 5760 5761 5761 5761 5761 5760 5758 5756 5756 5754 5753 5752 5751 5749 5747
5675 5681 5688 5693 5698 5703 5707 5713 5715 5717 5719 5721 5723 5729 5731 5735 5739 5741 5743 5743 5746 5746 5747 5748 5748 5749 5750 5751 5752 5753 5753 5752 5751 5753 5752 5752 5748 5747 5747 5746 5745 5744 5743 5741
5668 5674 5680 5685 5690 5695 5700 5704 5708 5711 5712 5714 5717 5719 5725 5727 5729 5732 5734 5735 5737 5738 5739 5739 5740 5741 5741 5741 5742 5742 5743 5744 5743 5741 5742 5743 5740 5739 5739 5739 5738 5736 5735 5734
5659 5664 5670 5677 5682 5686 5690 5695 5698 5701 5704 5705 5709 5712 5715 5717 5720 5722 5725 5726 5727 5728 5730 5731 5731 5732 5732 5733 5732 5732 5733 5734 5735 5733 5731 5732 5732 5730 5730 5730 5729 5728 5726 5726
5650 5653 5659 5664 5670 5675 5679 5685 5689 5692 5694 5697 5699 5702 5705 5707 5710 5713 5713 5715 5717 5718 5719 5720 5721 5721 5722 5722 5722 5722 5722 5723 5724 5723 5721 5721 5722 5721 5720 5719 5719 5717 5716 5716
5640 5646 5651 5656 5661 5666 5670 5676 5680 5682 5683 5688 5689 5691 5692 5695 5698 5701 5703 5704 5705 5706 5708 5709 5710 5710 5711 5711 5711 5711 5711 5712 5711 5711 5711 5710 5710 5709 5708 5708 5708 5707 5705 5704
5632 5638 5642 5645 5649 5654 5659 5665 5668 5671 5675 5676 5678 5679 5681 5682 5684 5687 5689 5692 5693 5694 5695 5696 5697 5697 5698 5697 5697 5697 5698 5698 5698 5699 5699 5698 5698 5698 5697 5696 5695 5695 5694 5693
5623 5628 5633 5637 5640 5644 5648 5654 5657 5660 5663 5665 5666 5668 5669 5670 5671 5672 5674 5676 5678 5680 5680 5681 5681 5682 5682 5683 5683 5682 5682 5682 5683 5683 5683 5684 5683 5683 5683 5683 5682 5681 5681 5680
5616 5619 5623 5626 5630 5633 5638 5642 5644 5648 5650 5652 5654 5657 5657 5657 5658 5658 5659 5660 5661 5663 5664 5665 5664 5664 5664 5665 5666 5666 5666 5666 5666 5665 5666 5666 5667 5666 5666 5666 5667 5667 5667 5666
5606 5609 5612 5616 5619 5622 5626 5630 5632 5635 5638 5640 5642 5644 5644 5644 5643 5643 5642 5643 5644 5646 5647 5648 5648 5648 5649 5649 5649 5648 5649 5649 5649 5649 5649 5649 5649 5649 5649 5649 5649 5649 5650 5650
5598 5602 5604 5607 5610 5614 5617 5620 5622 5623 5626 5628 5629 5630 5630 5631 5630 5630 5630 5629 5629 5628 5628 5628 5628 5628 5629 5630 5630 5630 5630 5630 5630 5630 5629 5629 5629 5629 5630 5631 5631 5631 5632 5632
5590 5593 5596 5599 5600 5602 5607 5609 5610 5610 5614 5616 5616 5617 5618 5618 5617 5617 5616 5615 5614 5613 5612 5612 5611 5610 5609 5608 5609 5609 5610 5610 5610 5610 5609 5609 5608 5608 5608 5608 5609 5611 5611 5612
5580 5582 5585 5587 5588 5592 5597 5598 5598 5600 5605 5602 5603 5603 5603 5604 5604 5603 5602 5600 5599 5597 5596 5595 5594 5593 5591 5590 5589 5589 5589 5589 5589 5589 5588 5587 5586 5586 5585 5585 5586 5588 5589 5590
5571 5573 5576 5576 5578 5582 5586 5585 5588 5587 5587 5587 5587 5587 5587 5587 5587 5586 5585 5585 5583 5582 5579 5577 5575 5573 5571 5570 5568 5567 5567 5567 5566 5566 5565 5564 5563 5563 5563 5563 5563 5564 5565 5566
5562 5564 5566 5569 5569 5571 5571 5573 5573 5573 5574 5574 5574 5573 5572 5571 5570 5569 5567 5566 5564 5562 5560 5558 5556 5553 5550 5548 5546 5545 5544 5544 5542 5540 5539 5539 5538 5538 5538 5539 5539 5539 5540 5541
5551 5553 5556 5557 5559 5559 5559 5559 5560 5561 5560 5560 5559 5558 5557 5555 5553 5551 5549 5547 5544 5541 5539 5536 5533 5529 5525 5523 5520 5519 5519 5518 5515 5513 5511 5510 5510 5510 5510 5511 5512 5514 5513 5514
5541 5542 5544 5545 5546 5547 5547 5547 5547 5547 5546 5546 5545 5544 5541 5539 5537 5534 5531 5528 5525 5522 5518 5514 5509 5504 5499 5496 5492 5489 5490 5487 5484 5483 5482 5481 5480 5479 5480 5479 5480 5481 5483 5484
5533 5534 5535 5535 5536 5537 5536 5536 5536 5536 5536 5535 5534 5532 5530 5527 5524 5520 5516 5513 5509 5505 5501 5496 5490 5484 5478 5473 5466 5462 5459 5455 5452 5450 5447 5446 5445 5446 5446 5446 5449 5447 5450 5450